Wind_Speed
30 30 33 36 36 35 36 33 28 25 22 23 25 23 22 23 23 19 14 13 13 12 13 13 13 12 13 17 21 25 27 29 29 28 26 24 23 22 22 22 21 21 21 21 21 21 22 22 21 20 19 18 17 16 16 16 15 14 15 15 15 15 14
30 30 32 35 36 35 36 34 31 28 25 26 28 25 24 26 26 21 16 15 15 14 15 15 14 13 13 16 20 24 27 29 29 29 27 26 25 23 23 23 23 23 23 22 22 22 22 21 20 20 19 19 19 17 17 17 15 14 15 15 14 14 14
26 29 31 34 35 37 38 37 35 33 29 27 27 25 25 28 28 23 18 17 17 17 17 17 15 14 14 15 19 23 26 28 29 30 29 28 28 27 26 25 25 24 24 24 23 22 22 21 20 20 20 20 20 19 18 17 16 15 15 15 14 14 14
22 24 29 33 34 37 40 41 40 35 31 30 28 25 25 28 30 25 20 20 21 20 20 19 17 16 16 15 18 21 25 28 30 31 31 31 31 30 29 28 27 26 25 25 24 23 22 22 22 21 21 21 20 19 18 18 17 17 16 15 15 16 15
21 21 26 32 36 38 39 44 43 35 32 33 29 26 26 29 31 27 23 22 23 24 24 22 20 18 17 16 17 20 24 27 30 31 33 33 33 33 31 30 28 28 27 25 24 23 23 23 22 22 22 22 20 19 19 19 19 18 18 18 18 19 19
18 20 23 28 35 39 39 43 42 35 36 36 31 29 29 31 32 29 26 26 27 28 27 24 22 20 18 17 17 19 22 26 29 31 33 35 35 34 33 31 29 28 27 26 26 25 24 24 24 22 22 22 21 20 20 19 18 19 20 20 22 23 22
13 15 18 23 29 34 36 41 40 36 37 38 34 32 31 32 33 29 28 30 31 32 29 26 24 23 22 20 19 20 23 26 28 31 33 35 36 35 34 32 29 27 26 26 26 25 25 26 26 23 21 21 21 21 20 18 18 19 19 21 23 23 22
11 12 16 21 25 29 33 39 38 34 34 38 37 34 32 34 34 30 30 32 33 34 31 27 26 26 25 24 22 21 24 27 29 31 33 35 37 36 34 32 30 28 27 25 24 24 24 26 25 22 21 22 21 21 21 20 20 21 21 21 22 24 25
10 12 14 17 21 26 31 33 33 30 29 34 35 34 34 36 33 32 34 33 32 33 29 27 28 29 29 27 24 24 26 27 29 31 34 36 37 36 35 33 31 30 29 27 25 23 24 24 22 21 22 24 23 22 22 22 22 23 23 22 23 25 28
8 10 14 16 16 22 28 28 28 30 29 33 36 36 36 35 32 33 35 33 32 31 28 29 31 31 31 29 26 27 28 28 28 31 33 36 37 36 35 33 31 30 29 29 26 23 22 23 23 23 23 24 24 23 22 23 24 23 23 23 24 26 28
12 10 14 17 14 19 28 28 29 32 31 31 33 35 36 34 32 34 36 35 36 33 29 30 33 34 33 30 27 30 29 27 29 31 33 35 35 35 34 31 28 26 26 27 26 24 23 22 23 24 25 25 25 23 22 23 24 24 23 23 24 24 25
14 14 14 16 16 20 27 30 29 30 30 30 28 28 31 32 33 38 40 39 39 36 32 31 33 34 33 30 29 30 28 27 29 31 33 34 33 33 31 27 24 24 24 26 26 26 25 23 23 25 25 25 25 24 23 23 24 24 24 25 25 23 22
16 18 18 16 18 20 24 29 29 29 31 31 26 25 28 31 35 40 42 41 39 37 35 33 32 31 30 28 29 30 28 28 29 29 31 32 32 32 29 25 24 23 23 23 24 25 24 24 25 25 26 26 26 24 22 21 23 25 25 26 26 24 23
18 21 21 17 17 21 25 29 31 31 31 30 28 27 30 34 38 42 42 40 38 36 33 30 27 27 28 28 27 28 27 27 29 29 29 30 30 29 26 23 22 22 22 23 24 24 24 24 25 26 27 27 26 23 21 21 23 25 24 24 25 26 25
17 20 21 20 18 21 24 27 31 32 30 30 30 30 31 35 38 40 40 36 33 32 31 27 24 26 28 26 24 23 24 26 27 28 29 29 29 27 23 21 21 22 23 25 25 25 24 24 26 27 27 26 25 23 21 20 22 24 23 23 25 26 25
17 17 20 21 21 22 24 27 29 29 28 30 31 31 32 33 33 33 31 28 28 31 32 27 24 25 26 23 21 22 24 25 25 26 28 28 27 24 22 21 21 22 25 27 27 26 25 25 27 29 29 26 24 23 21 21 23 23 23 24 26 27 26
16 16 18 22 25 27 27 27 28 28 29 33 35 34 33 34 33 31 28 26 29 32 30 26 25 25 24 21 21 23 24 23 23 25 26 27 25 22 21 21 23 24 27 28 27 26 26 27 28 30 30 28 26 24 23 24 25 24 24 25 27 28 28
17 18 20 22 25 27 27 26 27 28 30 35 38 36 35 36 36 34 30 28 30 31 28 25 26 25 21 20 22 22 21 22 24 26 26 27 25 22 20 21 24 26 27 26 25 26 27 29 30 30 31 30 28 27 27 28 27 26 25 25 27 28 29
23 23 23 24 24 24 24 25 28 29 30 34 36 34 34 35 35 34 32 30 30 30 25 23 25 23 20 19 19 18 19 21 24 26 27 27 25 22 21 23 25 25 24 24 25 26 28 31 32 32 32 31 29 28 28 29 29 28 27 27 27 29 30
25 23 22 22 24 24 24 26 29 29 29 32 33 31 30 31 31 31 31 29 29 26 22 22 24 20 18 17 16 17 20 23 26 26 26 25 25 23 22 23 24 23 23 24 26 27 31 34 33 33 33 31 28 27 29 30 30 29 29 29 30 31 31
21 20 19 19 19 21 23 26 29 30 30 31 31 29 28 28 29 28 26 26 29 29 25 24 22 17 15 15 16 19 24 26 27 26 24 25 25 24 23 24 25 25 26 28 27 27 31 33 33 32 32 30 28 29 29 30 31 30 29 30 30 31 31
15 15 16 17 16 16 20 25 28 28 28 28 28 28 28 27 27 25 24 27 31 28 23 23 20 17 16 17 20 24 27 28 27 25 25 27 27 25 25 25 25 25 27 29 28 28 32 35 35 33 31 30 30 31 31 31 30 28 26 27 28 29 29
12 11 13 15 16 15 16 20 23 23 23 25 27 28 27 26 26 26 24 25 27 25 23 24 22 20 20 22 25 27 28 28 27 25 27 29 27 25 25 23 24 28 32 32 30 30 33 36 36 32 28 29 31 32 33 33 31 27 24 25 27 28 28
8 8 11 16 18 17 16 17 18 20 21 23 26 26 24 24 28 27 23 22 23 23 23 24 22 21 23 25 26 27 28 28 27 27 29 28 27 27 25 24 27 33 35 33 30 30 33 35 35 31 28 29 30 32 34 34 31 28 26 26 27 27 27
9 9 13 19 20 17 16 16 18 22 23 23 24 26 24 26 29 27 22 20 21 22 23 23 22 23 25 25 25 26 28 28 28 29 28 28 28 29 28 28 30 32 32 32 32 32 34 35 34 31 30 30 31 33 34 33 30 26 25 25 26 25 25
13 12 17 23 22 17 16 16 19 24 25 23 25 28 29 28 29 26 21 18 21 25 23 21 22 23 24 25 26 28 29 29 28 28 28 29 30 30 31 31 29 29 32 34 34 35 36 34 33 33 34 33 34 36 35 33 29 22 20 24 25 25 25
14 14 16 17 16 14 13 15 19 21 21 20 23 27 29 27 25 22 17 17 22 23 19 18 18 19 23 26 28 28 29 29 28 29 30 30 31 33 36 34 31 32 35 34 32 33 34 33 32 34 35 34 36 37 35 34 28 18 16 22 25 26 27
14 13 14 14 15 15 14 17 19 20 22 22 22 23 25 23 19 15 14 17 19 18 17 17 17 20 23 26 27 27 29 31 31 31 30 31 33 36 38 37 36 36 37 34 32 32 33 32 31 33 34 35 37 36 34 33 26 16 14 19 23 26 27
15 14 16 20 22 21 19 18 18 18 20 22 22 19 17 17 16 14 16 18 17 17 20 21 20 22 24 25 26 28 31 35 35 34 34 35 36 38 40 41 40 39 37 36 35 34 32 31 32 32 31 32 33 31 30 29 25 20 20 21 22 25 26
19 16 18 22 24 23 21 17 16 17 15 14 16 16 15 17 18 16 18 20 20 21 24 22 19 20 25 27 27 28 31 35 36 38 40 39 39 40 42 41 39 38 37 37 35 32 30 31 33 32 30 29 30 30 30 29 29 29 27 24 22 23 24
23 18 18 22 23 22 19 17 18 21 18 18 19 19 18 18 18 16 18 23 26 27 27 25 23 23 27 29 30 30 32 36 38 40 40 38 38 40 39 36 35 36 35 32 30 29 31 33 35 34 32 32 32 33 32 32 33 34 31 26 23 23 22
27 25 24 24 20 18 19 18 19 23 24 24 24 22 18 17 18 20 20 22 25 27 27 26 25 27 30 32 33 33 35 37 36 36 36 36 36 36 34 33 33 32 30 29 30 32 35 36 36 35 34 33 32 33 33 34 35 35 30 26 24 23 22
32 33 32 29 24 22 22 21 22 24 25 23 25 26 24 22 21 22 22 21 22 24 24 25 28 31 33 34 34 34 35 35 32 32 33 33 32 31 31 32 30 28 29 32 33 35 36 36 36 35 34 34 34 34 34 35 33 27 23 22 22 22 21
32 30 28 28 30 31 31 29 27 28 28 27 28 29 28 25 20 19 20 21 22 23 25 29 33 35 35 35 35 34 33 31 30 30 29 28 28 28 28 28 28 29 31 34 35 35 35 35 36 35 33 34 35 34 34 33 28 21 17 18 20 20 21
31 30 28 28 30 33 36 36 33 30 29 30 30 29 26 23 20 18 17 18 21 26 30 34 36 37 36 35 34 32 31 29 27 26 24 23 24 26 27 29 31 32 33 34 35 35 34 34 35 34 33 33 33 31 29 28 25 20 17 18 18 19 20
30 33 32 28 27 30 33 35 35 34 32 31 31 28 23 19 18 18 18 19 23 29 33 36 36 35 34 33 32 30 28 25 22 21 20 20 23 26 29 31 33 34 33 33 33 34 35 35 34 31 30 31 30 27 23 21 20 19 18 18 18 19 19
28 28 27 26 28 31 32 33 34 34 31 28 24 21 19 19 21 24 25 25 26 29 31 34 34 32 31 31 30 28 26 24 22 22 23 24 26 29 31 32 33 33 32 32 33 35 35 33 30 28 27 27 26 23 19 18 18 18 18 18 19 19 19
30 28 24 21 23 27 28 27 28 28 25 23 21 21 23 25 28 29 28 27 28 30 32 32 31 30 30 30 30 29 28 25 24 24 25 26 27 30 31 32 33 32 31 32 34 35 34 31 28 26 25 24 24 21 18 17 17 18 17 18 19 19 19
Wind_Direction
221 213 215 222 221 218 224 234 238 235 230 221 219 225 230 236 245 253 256 258 269 275 274 287 302 312 333 343 342 344 348 351 352 350 346 340 337 334 332 329 326 324 323 320 317 314 312 311 310 309 308 308 308 308 306 304 303 303 305 307 307 309 309
219 217 217 223 224 221 225 234 237 234 228 220 219 223 228 237 248 256 259 260 269 272 270 279 293 301 318 336 339 338 342 348 351 351 349 344 339 335 332 329 325 323 320 318 316 315 315 313 312 310 310 309 309 309 306 303 302 302 302 304 306 308 308
220 220 218 221 225 225 226 229 234 236 232 228 232 232 226 234 247 257 261 263 268 269 268 273 283 294 306 325 336 336 336 342 347 349 349 346 343 339 335 330 326 322 319 318 317 316 315 314 313 312 311 310 309 309 307 304 303 301 302 305 308 312 312
233 228 220 221 225 228 229 229 235 241 236 234 239 232 225 237 249 256 257 259 264 266 266 270 277 287 297 314 331 334 333 336 342 346 347 345 342 340 336 332 327 323 320 318 316 316 316 316 315 314 313 312 311 309 308 306 305 306 311 316 317 317 317
237 238 226 220 222 229 232 231 236 244 241 240 239 227 231 250 253 252 253 254 260 262 261 267 274 281 290 303 320 330 333 334 336 340 342 342 340 338 336 332 328 324 322 321 319 318 317 315 315 315 314 313 311 309 308 308 311 316 321 324 323 319 315
235 239 233 228 225 227 233 234 237 243 243 244 242 233 242 254 251 249 252 252 255 256 257 264 272 277 284 294 308 321 328 331 332 335 337 338 337 336 335 332 328 326 326 325 323 320 319 318 317 315 312 312 311 311 312 311 315 320 321 321 319 317 314
248 242 239 243 235 228 232 233 235 240 241 238 239 241 247 250 249 252 254 251 251 250 253 263 270 274 278 285 297 308 318 324 327 329 332 333 333 333 333 331 328 327 326 325 324 321 320 319 317 316 314 312 311 313 315 313 310 311 312 312 312 312 313
261 253 237 240 244 240 235 233 238 245 237 230 237 246 245 246 253 257 255 254 249 245 251 265 272 275 277 280 287 296 310 317 320 325 329 330 330 330 330 329 328 327 326 328 327 322 319 318 317 319 319 317 314 313 313 310 306 305 306 308 310 311 312
256 261 245 236 241 244 241 237 242 245 231 228 243 250 245 247 255 255 255 257 250 245 256 271 274 274 274 275 282 293 304 310 316 323 325 325 326 327 328 328 328 328 329 332 332 327 324 322 320 319 318 317 314 312 311 309 308 308 307 307 310 310 309
261 260 253 247 238 240 246 245 244 245 236 231 240 244 244 249 256 253 251 253 251 251 262 271 272 274 272 270 281 296 301 305 314 320 320 321 324 326 327 328 329 331 333 334 333 329 324 320 317 316 316 315 314 312 310 309 309 310 308 306 306 305 303
288 283 260 253 244 239 244 244 244 249 245 237 238 242 246 251 253 246 239 241 248 254 263 268 270 272 271 271 284 296 298 304 314 316 316 319 323 324 325 327 328 330 330 329 329 328 324 321 320 320 319 318 316 313 310 308 308 308 308 307 305 301 298
287 293 280 259 247 244 245 244 244 246 248 249 249 250 252 250 244 236 232 236 245 253 260 265 265 266 271 278 290 296 296 303 312 313 314 318 321 322 323 324 323 324 325 328 330 329 326 323 321 321 322 323 321 317 313 311 310 310 312 311 305 298 295
279 286 294 272 246 243 247 247 245 246 252 255 255 254 253 246 238 236 237 241 247 253 260 265 267 271 278 286 294 296 297 304 310 312 315 319 321 322 322 322 322 323 327 329 328 326 323 323 325 327 328 329 326 322 319 317 314 313 312 309 304 301 300
279 282 294 287 255 240 241 242 243 246 251 251 250 250 246 239 237 239 242 246 251 256 263 272 280 284 286 288 291 293 297 307 312 313 317 321 322 321 319 319 319 322 326 327 328 329 328 328 331 332 330 329 328 326 326 322 315 310 307 303 301 302 301
278 279 283 283 267 250 246 245 246 249 246 242 245 246 239 236 239 243 247 251 254 259 267 276 282 283 285 287 285 289 300 310 313 314 318 321 321 318 316 315 317 320 326 329 330 332 331 330 332 332 330 329 330 331 329 320 310 306 303 300 298 299 300
273 275 272 270 266 258 252 250 252 252 243 237 244 249 244 243 249 253 255 256 259 264 269 272 271 276 283 283 281 291 303 308 310 314 317 320 320 316 314 315 318 321 324 326 327 327 328 328 329 331 331 329 331 331 325 315 311 305 301 302 304 304 304
269 267 265 266 267 264 258 251 250 251 245 242 248 253 251 251 254 257 257 255 259 263 264 264 267 276 283 279 280 295 305 306 308 312 316 319 319 315 314 315 318 321 323 325 325 324 325 326 327 330 331 330 328 325 318 316 315 308 302 308 314 313 310
268 258 254 259 266 271 268 254 243 246 247 244 247 252 252 252 255 259 258 255 258 262 262 264 270 276 281 278 282 297 307 306 308 311 315 317 316 314 313 315 318 321 323 325 325 324 326 328 328 330 330 327 323 319 318 317 314 310 307 309 313 313 312
276 268 259 255 255 261 266 256 244 245 244 241 247 255 257 258 263 264 258 256 262 266 265 267 271 274 277 280 287 301 308 306 307 310 313 315 315 317 316 315 318 320 322 326 325 324 327 329 328 329 328 326 322 319 318 315 311 310 310 309 311 313 312
283 283 276 264 252 248 254 257 255 253 248 246 253 261 263 265 265 260 256 260 263 257 251 261 273 277 280 285 295 305 307 308 308 308 311 315 318 318 315 314 317 319 321 323 322 324 329 329 327 327 326 324 321 319 317 313 310 311 311 311 313 314 313
287 290 287 277 259 245 244 248 252 256 256 256 261 263 261 258 257 256 256 253 245 238 242 261 274 279 282 291 306 309 307 307 307 306 309 315 319 318 316 315 317 318 320 318 316 323 329 327 324 323 323 322 321 318 314 311 311 313 313 314 313 312 312
290 290 290 289 278 258 245 246 251 255 259 262 264 261 254 248 246 247 244 238 237 237 244 256 264 270 279 295 308 309 306 305 306 309 312 315 318 320 319 316 314 316 319 316 314 321 327 325 321 320 320 319 318 315 312 310 311 312 313 312 309 309 311
285 277 275 275 273 264 253 253 257 260 262 261 256 251 248 242 236 234 235 240 242 238 237 243 252 265 281 297 304 304 305 307 310 316 318 318 319 319 316 313 313 317 319 317 315 320 323 322 318 315 314 314 313 313 313 311 309 311 315 313 310 310 312
287 282 275 267 266 261 252 254 261 262 259 252 247 248 247 240 233 231 232 235 236 235 239 246 254 270 287 298 301 303 308 311 313 318 319 317 317 316 313 311 312 314 317 317 317 319 321 319 314 309 308 308 308 309 310 306 303 308 316 317 314 314 316
272 276 263 261 263 259 249 253 262 259 249 239 237 241 240 232 228 228 227 229 234 239 246 252 263 280 294 301 304 307 311 312 313 315 315 314 314 312 309 308 308 310 314 316 316 317 318 316 313 308 303 302 304 306 306 300 296 302 312 313 312 314 317
278 271 260 265 270 266 252 249 254 253 245 237 235 234 229 223 224 229 233 233 232 236 248 268 285 295 301 306 309 310 310 310 309 308 308 309 309 306 304 303 302 304 308 310 310 312 314 312 310 307 303 301 305 307 302 292 287 292 303 305 304 307 313
281 275 274 276 274 272 260 249 254 259 256 252 248 239 230 224 229 243 248 233 227 237 260 284 292 295 300 305 309 309 307 304 304 303 299 295 295 296 298 298 297 299 304 304 302 306 309 308 305 302 298 298 301 300 293 286 283 283 291 295 299 304 310
272 264 268 261 255 260 247 230 237 250 254 255 249 237 230 232 242 250 240 228 235 255 275 280 279 286 297 304 307 306 301 298 300 298 288 279 280 288 295 297 297 297 299 298 297 301 305 304 302 298 296 297 296 290 285 284 284 284 289 292 298 306 310
260 248 254 255 257 261 253 235 227 231 239 244 241 231 225 231 234 225 224 236 249 259 269 277 282 285 292 299 302 300 297 296 298 296 287 280 280 286 293 297 295 294 296 298 299 302 304 304 304 303 301 301 298 292 290 289 289 296 306 304 300 305 311
252 246 250 253 258 263 266 262 249 239 233 227 230 230 219 216 221 222 230 238 234 232 247 261 267 271 281 292 298 297 294 293 293 293 290 286 282 284 291 295 293 293 297 300 300 302 304 306 308 308 305 302 299 295 291 288 287 295 304 304 300 303 308
253 254 253 253 261 270 271 263 252 243 226 202 209 227 224 215 225 234 232 231 229 232 243 251 256 268 281 293 300 298 293 290 290 289 287 283 281 285 291 294 293 294 298 299 299 301 305 308 309 307 303 299 296 292 288 286 287 289 291 294 298 301 305
266 266 257 248 249 255 252 240 232 233 225 207 207 221 221 211 223 235 235 235 242 248 252 257 270 285 293 298 301 296 291 290 288 284 282 282 286 290 292 292 293 295 298 300 301 303 306 307 306 303 300 296 293 291 290 289 289 288 285 285 292 299 303
266 262 254 240 228 228 227 218 209 214 218 208 202 212 220 221 226 236 243 252 262 266 270 279 292 300 301 301 299 294 290 290 286 282 283 286 289 291 290 290 293 296 298 300 302 304 306 305 303 302 300 296 294 295 294 292 291 289 282 280 290 299 302
252 246 243 241 238 233 226 219 216 213 211 209 207 213 223 231 234 240 250 263 273 277 283 291 298 302 302 300 297 295 294 292 286 284 286 287 286 286 286 287 291 294 296 300 302 303 304 303 303 303 302 299 297 297 295 292 288 284 280 282 290 297 301
246 243 250 259 252 236 226 228 230 221 211 214 217 216 220 232 243 250 258 270 280 286 293 298 300 302 302 301 300 300 298 295 290 289 289 288 288 289 290 290 294 298 299 301 302 301 301 302 303 304 303 301 300 298 294 287 279 276 282 287 290 295 300
257 255 258 255 238 225 229 236 232 219 215 222 227 227 234 250 263 267 269 272 278 286 294 299 300 301 303 303 303 303 300 297 296 296 296 293 292 293 294 296 300 303 302 301 300 300 301 302 303 304 304 302 302 301 293 281 273 274 281 286 290 296 300
262 259 256 245 231 228 235 236 227 220 221 225 230 241 257 270 274 275 276 280 284 289 294 297 299 302 304 304 303 300 297 295 295 294 294 291 290 292 294 297 301 303 302 301 302 302 304 304 303 304 304 302 302 299 287 274 272 276 280 284 290 296 298
259 252 248 242 229 222 221 220 220 222 223 223 234 254 268 272 273 276 280 286 293 296 297 298 300 302 305 305 302 298 295 293 291 291 293 292 293 296 298 299 300 299 299 302 303 304 305 304 303 304 304 301 299 294 284 275 274 275 277 283 290 295 296
Height
3178 3180 3181 3180 3181 3182 3182 3183 3185 3186 3186 3187 3189 3192 3193 3192 3190 3191 3192 3193 3193 3195 3196 3196 3196 3196 3196 3195 3194 3193 3192 3191 3189 3187 3186 3184 3183 3181 3180 3178 3177 3176 3175 3174 3173 3172 3171 3170 3168 3167 3166 3165 3164 3163 3162 3160 3159 3158 3157 3156 3155 3154 3154
3176 3178 3179 3179 3179 3180 3180 3181 3182 3184 3185 3185 3187 3191 3192 3190 3188 3189 3191 3191 3192 3193 3194 3195 3195 3194 3194 3193 3192 3192 3191 3190 3188 3187 3185 3184 3182 3181 3179 3177 3175 3174 3173 3172 3171 3170 3169 3167 3166 3165 3164 3163 3162 3161 3160 3159 3157 3156 3155 3154 3154 3153 3152
3174 3175 3177 3178 3178 3178 3178 3179 3181 3182 3183 3184 3185 3187 3189 3188 3186 3188 3190 3190 3191 3192 3193 3193 3193 3193 3192 3191 3190 3190 3189 3188 3187 3185 3184 3182 3181 3179 3178 3176 3174 3173 3171 3170 3169 3168 3167 3165 3164 3163 3162 3161 3160 3158 3157 3156 3155 3154 3153 3153 3152 3152 3150
3171 3173 3175 3176 3177 3177 3177 3178 3179 3180 3182 3182 3183 3185 3186 3185 3184 3186 3188 3188 3189 3190 3191 3191 3192 3191 3190 3189 3188 3187 3187 3186 3185 3184 3182 3181 3180 3178 3176 3174 3173 3171 3170 3168 3167 3166 3164 3163 3162 3161 3160 3159 3158 3156 3155 3154 3153 3152 3152 3152 3151 3150 3149
3169 3171 3173 3174 3174 3175 3176 3175 3176 3178 3180 3181 3182 3184 3184 3182 3182 3184 3185 3186 3188 3189 3189 3189 3190 3189 3188 3187 3186 3186 3185 3184 3183 3182 3181 3180 3178 3177 3175 3173 3171 3169 3167 3166 3165 3163 3162 3161 3160 3158 3157 3157 3156 3155 3154 3153 3152 3151 3151 3150 3149 3148 3147
3167 3168 3169 3171 3171 3172 3173 3172 3173 3177 3179 3179 3180 3181 3182 3180 3180 3181 3182 3184 3185 3186 3187 3187 3188 3187 3186 3186 3185 3184 3184 3183 3181 3180 3179 3178 3177 3175 3173 3171 3169 3167 3165 3164 3163 3162 3160 3159 3158 3156 3155 3154 3154 3153 3153 3151 3150 3150 3149 3148 3146 3145 3144
3164 3165 3166 3167 3167 3168 3169 3170 3172 3175 3177 3178 3178 3179 3179 3178 3176 3178 3179 3181 3182 3184 3184 3185 3186 3185 3184 3184 3183 3183 3182 3181 3180 3179 3177 3176 3175 3174 3172 3170 3167 3165 3164 3162 3161 3160 3159 3157 3156 3155 3153 3153 3152 3151 3151 3150 3149 3147 3146 3145 3143 3143 3142
3163 3164 3165 3165 3165 3165 3166 3167 3170 3172 3173 3175 3175 3176 3176 3175 3174 3176 3178 3178 3179 3180 3182 3183 3184 3183 3182 3182 3181 3181 3181 3180 3179 3177 3175 3174 3173 3172 3170 3168 3165 3163 3162 3162 3160 3159 3157 3156 3154 3153 3152 3152 3151 3150 3149 3148 3146 3145 3143 3142 3141 3140 3140
3163 3163 3164 3165 3166 3164 3163 3165 3167 3169 3171 3172 3172 3173 3173 3173 3174 3175 3175 3175 3176 3177 3179 3180 3181 3181 3180 3179 3179 3179 3179 3178 3176 3174 3173 3172 3171 3169 3168 3165 3163 3161 3159 3159 3158 3157 3155 3154 3153 3152 3151 3150 3149 3149 3147 3145 3144 3143 3141 3140 3140 3139 3138
3162 3163 3163 3164 3165 3164 3162 3162 3164 3165 3168 3170 3170 3170 3171 3171 3172 3171 3170 3170 3171 3174 3177 3178 3178 3178 3178 3177 3177 3177 3177 3176 3174 3173 3171 3170 3168 3167 3165 3163 3161 3158 3156 3155 3155 3155 3154 3153 3152 3151 3150 3149 3147 3147 3145 3143 3142 3140 3139 3139 3138 3137 3136
3160 3161 3162 3162 3164 3163 3161 3161 3162 3162 3164 3167 3169 3169 3168 3167 3168 3168 3168 3168 3170 3171 3174 3175 3174 3174 3175 3175 3175 3175 3175 3174 3172 3171 3170 3169 3167 3165 3163 3161 3160 3158 3156 3155 3154 3153 3152 3151 3150 3148 3147 3146 3145 3144 3143 3141 3139 3138 3137 3137 3136 3135 3133
3158 3159 3160 3161 3162 3161 3160 3159 3160 3161 3162 3165 3167 3167 3166 3164 3165 3166 3166 3168 3169 3169 3171 3173 3172 3171 3172 3174 3174 3174 3173 3173 3171 3169 3168 3166 3165 3164 3162 3160 3159 3158 3156 3154 3152 3150 3149 3149 3148 3147 3146 3145 3143 3142 3140 3139 3137 3135 3134 3134 3133 3132 3130
3156 3155 3157 3159 3160 3161 3159 3158 3158 3159 3160 3162 3163 3164 3163 3162 3163 3163 3164 3165 3166 3166 3167 3170 3171 3171 3172 3172 3172 3171 3170 3169 3168 3167 3165 3163 3162 3161 3159 3158 3156 3155 3154 3152 3150 3149 3148 3147 3146 3145 3143 3143 3141 3140 3138 3137 3135 3133 3131 3130 3128 3127 3126
3153 3152 3153 3155 3157 3158 3158 3157 3157 3158 3159 3159 3159 3160 3159 3159 3160 3160 3162 3163 3164 3164 3165 3168 3170 3169 3169 3169 3169 3168 3167 3165 3164 3163 3163 3161 3160 3158 3157 3155 3154 3153 3152 3150 3149 3147 3146 3145 3143 3142 3141 3140 3139 3138 3136 3135 3132 3130 3129 3127 3125 3124 3123
3152 3151 3150 3150 3151 3152 3153 3155 3156 3156 3157 3157 3157 3156 3157 3157 3157 3158 3159 3162 3163 3163 3164 3167 3168 3166 3165 3166 3166 3165 3164 3162 3161 3161 3160 3158 3158 3156 3154 3153 3151 3150 3149 3147 3146 3145 3144 3143 3142 3141 3140 3138 3136 3135 3133 3132 3129 3127 3126 3125 3123 3122 3121
3150 3150 3150 3148 3148 3149 3149 3151 3153 3153 3153 3153 3153 3153 3154 3154 3154 3155 3157 3159 3160 3161 3163 3165 3166 3164 3163 3163 3163 3162 3161 3161 3160 3159 3157 3156 3155 3153 3152 3150 3149 3148 3147 3145 3144 3143 3142 3141 3140 3139 3137 3136 3134 3132 3131 3129 3127 3126 3125 3123 3121 3120 3118
3147 3148 3149 3147 3146 3146 3146 3146 3148 3149 3150 3150 3149 3150 3151 3152 3152 3153 3155 3158 3158 3159 3161 3163 3163 3162 3161 3161 3160 3159 3159 3159 3158 3157 3155 3154 3152 3151 3149 3148 3147 3146 3145 3144 3143 3142 3141 3139 3138 3136 3135 3133 3131 3130 3128 3127 3126 3124 3122 3121 3119 3117 3116
3144 3145 3146 3145 3144 3143 3143 3142 3143 3145 3147 3148 3148 3148 3149 3149 3149 3150 3152 3155 3155 3156 3158 3160 3159 3159 3159 3158 3157 3156 3156 3156 3155 3154 3152 3151 3150 3148 3147 3146 3145 3144 3143 3143 3141 3140 3139 3138 3136 3134 3132 3130 3129 3127 3126 3124 3123 3122 3120 3119 3117 3115 3112
3141 3141 3141 3142 3142 3142 3141 3140 3141 3142 3144 3146 3146 3147 3147 3147 3147 3148 3150 3152 3152 3153 3154 3155 3155 3156 3156 3155 3154 3154 3154 3154 3153 3151 3150 3148 3147 3146 3145 3143 3143 3142 3141 3141 3139 3138 3137 3136 3134 3132 3130 3127 3125 3124 3122 3121 3120 3119 3118 3116 3115 3112 3109
3137 3137 3137 3137 3138 3140 3140 3140 3139 3139 3140 3142 3144 3145 3145 3145 3145 3146 3148 3150 3149 3149 3150 3151 3152 3153 3152 3151 3151 3152 3152 3152 3151 3149 3147 3145 3144 3143 3142 3141 3140 3140 3139 3139 3137 3136 3134 3133 3131 3130 3127 3125 3123 3121 3120 3118 3117 3116 3115 3113 3110 3108 3106
3134 3134 3133 3133 3134 3136 3137 3138 3138 3138 3138 3139 3141 3142 3142 3142 3142 3143 3145 3146 3145 3145 3148 3149 3149 3149 3149 3149 3149 3150 3150 3149 3149 3147 3145 3143 3142 3141 3140 3139 3138 3137 3137 3136 3135 3133 3132 3130 3129 3127 3125 3122 3121 3119 3117 3116 3114 3113 3111 3109 3106 3104 3102
3133 3132 3132 3132 3132 3133 3134 3135 3136 3136 3136 3137 3137 3138 3138 3138 3139 3141 3143 3143 3142 3144 3146 3146 3146 3146 3147 3148 3148 3148 3147 3147 3146 3144 3142 3141 3139 3138 3137 3136 3136 3136 3135 3134 3133 3131 3130 3128 3127 3124 3122 3120 3118 3116 3115 3113 3111 3110 3109 3106 3103 3101 3099
3131 3131 3131 3131 3130 3131 3132 3133 3133 3134 3134 3134 3134 3134 3135 3135 3136 3138 3141 3142 3143 3145 3145 3144 3145 3146 3146 3147 3146 3146 3145 3144 3142 3141 3139 3137 3136 3135 3134 3133 3133 3132 3132 3131 3130 3129 3127 3126 3124 3121 3119 3118 3116 3114 3112 3110 3109 3108 3106 3104 3101 3098 3096
3128 3129 3129 3128 3128 3128 3129 3130 3132 3132 3132 3132 3131 3131 3132 3133 3134 3137 3139 3141 3142 3143 3143 3143 3145 3145 3145 3145 3144 3143 3142 3140 3138 3136 3135 3134 3133 3132 3131 3130 3129 3128 3128 3127 3126 3126 3125 3124 3122 3119 3117 3117 3115 3113 3110 3108 3106 3105 3104 3102 3099 3096 3093
3125 3127 3126 3125 3124 3126 3127 3128 3129 3129 3128 3128 3128 3128 3129 3130 3132 3134 3137 3138 3138 3139 3141 3143 3144 3144 3143 3142 3141 3139 3138 3136 3135 3133 3132 3131 3130 3130 3129 3128 3127 3126 3125 3124 3123 3123 3122 3121 3119 3116 3114 3114 3113 3111 3109 3106 3104 3103 3102 3100 3097 3094 3092
3122 3123 3122 3121 3121 3122 3123 3124 3125 3124 3124 3125 3126 3126 3127 3129 3131 3133 3135 3136 3137 3138 3140 3141 3141 3140 3139 3139 3138 3136 3135 3133 3132 3130 3128 3127 3127 3127 3126 3126 3125 3123 3122 3121 3120 3119 3119 3118 3115 3112 3111 3110 3110 3109 3106 3103 3102 3101 3100 3098 3096 3092 3090
3120 3120 3119 3118 3118 3119 3120 3120 3121 3122 3122 3123 3124 3124 3124 3127 3130 3132 3133 3134 3136 3138 3139 3139 3138 3138 3137 3137 3136 3134 3132 3131 3129 3128 3125 3124 3123 3123 3123 3123 3122 3120 3119 3119 3118 3117 3115 3114 3112 3110 3108 3107 3106 3104 3100 3098 3098 3097 3096 3095 3093 3090 3087
3118 3118 3117 3116 3115 3116 3116 3115 3116 3119 3120 3121 3123 3123 3124 3126 3128 3130 3132 3134 3136 3137 3137 3137 3137 3136 3136 3135 3134 3132 3130 3128 3127 3126 3123 3121 3120 3119 3119 3119 3118 3117 3116 3116 3115 3114 3112 3110 3109 3107 3105 3103 3101 3098 3096 3094 3094 3094 3093 3091 3090 3087 3085
3115 3116 3115 3114 3114 3114 3114 3113 3115 3118 3119 3120 3123 3124 3124 3125 3127 3129 3133 3135 3136 3136 3136 3135 3136 3135 3134 3133 3132 3130 3127 3125 3123 3122 3119 3118 3117 3116 3115 3115 3114 3113 3112 3111 3110 3109 3107 3105 3103 3102 3100 3099 3096 3094 3092 3091 3091 3091 3089 3087 3086 3084 3082
3112 3114 3113 3113 3112 3113 3113 3114 3115 3117 3119 3119 3120 3121 3122 3123 3126 3130 3132 3133 3133 3133 3132 3132 3133 3133 3132 3130 3129 3127 3124 3121 3119 3117 3115 3114 3113 3112 3111 3111 3109 3108 3107 3106 3104 3103 3101 3099 3098 3096 3095 3094 3092 3089 3088 3087 3087 3087 3086 3085 3083 3081 3079
3110 3112 3112 3113 3113 3112 3112 3114 3114 3115 3116 3116 3117 3119 3120 3121 3123 3126 3128 3129 3129 3129 3128 3127 3128 3128 3128 3127 3126 3123 3120 3118 3116 3114 3112 3111 3110 3109 3107 3106 3104 3103 3103 3101 3100 3099 3097 3095 3094 3091 3090 3089 3087 3085 3083 3083 3082 3083 3083 3082 3080 3078 3076
3109 3109 3109 3110 3111 3111 3112 3113 3113 3111 3112 3114 3115 3117 3118 3118 3120 3121 3123 3124 3125 3125 3125 3124 3124 3125 3124 3122 3121 3119 3116 3114 3113 3110 3108 3107 3105 3104 3103 3101 3100 3099 3098 3097 3096 3095 3093 3091 3090 3087 3085 3083 3082 3080 3079 3079 3078 3077 3078 3077 3076 3075 3073
3104 3104 3103 3105 3107 3107 3108 3110 3110 3109 3109 3111 3113 3114 3114 3115 3117 3118 3119 3120 3120 3120 3121 3121 3121 3120 3118 3116 3114 3113 3111 3109 3107 3105 3104 3102 3101 3099 3098 3096 3096 3095 3094 3093 3093 3091 3089 3087 3085 3083 3082 3079 3077 3076 3075 3074 3073 3073 3073 3073 3072 3071 3069
3099 3100 3100 3100 3103 3104 3105 3106 3107 3108 3108 3108 3108 3108 3109 3111 3113 3115 3115 3116 3116 3116 3116 3117 3116 3115 3113 3111 3109 3107 3105 3103 3102 3101 3099 3098 3096 3096 3095 3093 3093 3093 3091 3090 3089 3087 3085 3083 3081 3079 3077 3075 3073 3072 3070 3069 3069 3069 3069 3069 3068 3067 3066
3096 3098 3097 3097 3098 3100 3102 3103 3103 3104 3105 3105 3104 3104 3106 3109 3111 3111 3112 3113 3113 3112 3112 3112 3112 3110 3108 3105 3103 3100 3099 3098 3097 3096 3095 3094 3092 3092 3091 3090 3090 3089 3088 3086 3085 3083 3081 3079 3077 3075 3073 3070 3069 3068 3066 3065 3065 3066 3066 3065 3065 3064 3063
3092 3093 3094 3094 3095 3097 3100 3101 3100 3099 3100 3102 3102 3103 3105 3106 3107 3108 3109 3110 3111 3110 3109 3108 3107 3105 3102 3099 3097 3095 3094 3093 3093 3093 3092 3091 3089 3088 3088 3087 3086 3085 3084 3082 3080 3078 3077 3075 3073 3071 3069 3066 3065 3064 3063 3062 3063 3063 3063 3063 3062 3061 3060
3090 3090 3090 3091 3092 3095 3096 3097 3096 3096 3097 3098 3100 3102 3102 3103 3103 3105 3106 3107 3107 3107 3106 3104 3101 3100 3098 3095 3093 3091 3090 3090 3090 3089 3089 3088 3087 3085 3085 3084 3082 3081 3080 3078 3076 3074 3073 3071 3069 3068 3065 3063 3062 3062 3062 3061 3061 3061 3061 3060 3060 3059 3058
3088 3087 3087 3088 3090 3091 3092 3093 3093 3093 3094 3095 3097 3098 3099 3100 3101 3101 3101 3101 3102 3101 3100 3099 3097 3095 3094 3092 3090 3088 3087 3087 3087 3086 3086 3086 3084 3082 3081 3080 3078 3077 3076 3075 3073 3071 3069 3067 3066 3064 3063 3061 3060 3060 3060 3059 3059 3058 3058 3058 3057 3056 3055